FW6321 Weather Reports


Display with metric or nautical units.
time (UTC)temp
F
wind
direction
speed
MPH
gust
MPH
rain 1hr
in
rain 24hr
in
rain mn
in
humidity
%
barometer
mb
20260505001406 53 4 9.0 18.0 0.00 0.18 0.00 93 1013.6
20260505000328 53 325 9.0 17.0 0.00 0.18 0.00 93 1013.6
20260504235825 53 325 9.0 17.0 0.00 0.18 0.00 93 1013.6
20260504235325 53 325 9.0 19.0 0.00 0.18 0.00 93 1013.6
20260504234915 53 341 9.0 19.0 0.00 0.18 0.00 93 1013.6
20260504233824 54 347 8.0 17.0 0.00 0.18 0.00 94 1013.7
20260504233326 54 300 7.0 15.0 0.00 0.18 0.00 94 1013.7
20260504232902 54 349 7.0 14.0 0.00 0.18 0.00 94 1013.7
20260504231825 54 347 8.0 15.0 0.00 0.18 0.00 94 1013.8
20260504231325 54 325 8.0 17.0 0.00 0.18 0.00 94 1013.9
20260504230825 54 8 9.0 17.0 0.00 0.18 0.00 94 1013.9
20260504230322 54 341 9.0 17.0 0.00 0.18 0.00 94 1013.8
20260504225823 54 325 9.0 17.0 0.00 0.18 0.00 94 1013.9
20260504225323 54 354 7.0 13.0 0.00 0.18 0.00 94 1013.9
20260504224822 54 339 6.0 11.0 0.00 0.18 0.00 94 1013.9
20260504224317 54 325 7.0 13.0 0.00 0.18 0.00 94 1013.9
20260504223819 55 342 7.0 13.0 0.00 0.18 0.00 94 1014.0
20260504223317 55 325 7.0 12.0 0.00 0.18 0.00 94 1014.0
20260504222816 55 316 7.0 14.0 0.00 0.18 0.00 94 1014.0
20260504222355 55 349 7.0 14.0 0.00 0.18 0.00 94 1014.0
20260504221316 55 320 8.0 13.0 0.00 0.18 0.00 94 1014.1
20260504220815 55 325 8.0 13.0 0.00 0.18 0.00 94 1014.1
20260504220351 55 346 7.0 12.0 0.00 0.18 0.00 94 1014.1
20260504215354 55 31 7.0 13.0 0.00 0.18 0.18 94 1014.1
20260504214316 55 325 7.0 16.0 0.00 0.18 0.18 93 1014.2
20260504213815 55 343 7.0 16.0 0.00 0.18 0.18 93 1014.2
20260504213318 56 345 7.0 13.0 0.00 0.18 0.18 93 1014.2
20260504212821 56 330 8.0 15.0 0.00 0.18 0.18 93 1014.3
20260504212318 56 318 8.0 15.0 0.00 0.18 0.18 93 1014.3
20260504211814 56 325 7.0 14.0 0.00 0.18 0.18 93 1014.3
20260504211316 56 344 8.0 14.0 0.00 0.18 0.18 93 1014.3
20260504210815 56 10 8.0 16.0 0.00 0.18 0.18 93 1014.4
20260504210315 56 325 8.0 16.0 0.00 0.18 0.18 93 1014.4
20260504205816 56 347 7.0 15.0 0.00 0.18 0.18 93 1014.3
20260504205318 56 64 7.0 15.0 0.00 0.18 0.18 93 1014.4
20260504204900 56 310 6.0 14.0 0.00 0.18 0.18 93 1014.4
20260504203812 56 325 7.0 14.0 0.00 0.18 0.18 92 1014.4
20260504203313 56 330 6.0 14.0 0.00 0.18 0.18 92 1014.4
20260504202811 56 335 6.0 14.0 0.00 0.18 0.18 92 1014.4
20260504202350 56 295 6.0 11.0 0.00 0.18 0.18 92 1014.3
20260504201436 56 6 7.0 15.0 0.00 0.18 0.18 92 1014.3
20260504195807 56 26 9.0 18.0 0.00 0.18 0.18 92 1014.2
20260504195316 56 0 9.0 18.0 0.00 0.18 0.18 93 1014.2
20260504194931 57 325 8.0 18.0 0.00 0.18 0.18 93 1014.1
20260504193808 57 344 8.0 15.0 0.00 0.18 0.18 93 1014.1
20260504193306 57 14 8.0 15.0 0.00 0.18 0.18 93 1014.1
20260504192906 57 9 9.0 15.0 0.00 0.18 0.18 93 1014.1
20260504191805 57 10 8.0 19.0 0.00 0.18 0.18 92 1014.0
20260504191306 58 341 7.0 13.0 0.00 0.18 0.18 93 1013.9
20260504190806 58 0 7.0 14.0 0.00 0.18 0.18 93 1013.8
20260504190305 58 341 7.0 15.0 0.00 0.18 0.18 93 1013.7
20260504185806 58 16 8.0 15.0 0.00 0.18 0.18 93 1013.7
20260504185304 58 346 7.0 13.0 0.00 0.18 0.18 93 1013.7
20260504184807 58 325 6.0 13.0 0.00 0.18 0.18 93 1013.7
20260504184303 58 335 7.0 15.0 0.00 0.18 0.18 93 1013.7
20260504183802 58 7 7.0 15.0 0.00 0.19 0.18 93 1013.7
20260504183302 58 349 7.0 15.0 0.00 0.20 0.18 93 1013.7
20260504182804 58 316 7.0 15.0 0.00 0.20 0.18 93 1013.6
20260504182334 59 10 7.0 13.0 0.00 0.20 0.18 93 1013.7
20260504181304 59 13 8.0 16.0 0.00 0.20 0.18 93 1013.6
20260504180804 59 330 8.0 15.0 0.00 0.20 0.18 93 1013.5
20260504180304 59 343 7.0 13.0 0.00 0.20 0.18 94 1013.5
20260504175803 59 335 7.0 13.0 0.00 0.20 0.18 94 1013.4
20260504175304 60 23 6.0 13.0 0.00 0.20 0.18 94 1013.5
20260504174804 60 353 6.0 11.0 0.00 0.20 0.18 94 1013.5
20260504174307 60 359 6.0 11.0 0.00 0.20 0.18 94 1013.5
20260504173804 60 325 6.0 14.0 0.00 0.20 0.18 94 1013.6
20260504173306 60 359 7.0 14.0 0.00 0.21 0.18 94 1013.5
20260504172804 60 349 8.0 13.0 0.00 0.21 0.18 94 1013.5
20260504172303 60 335 7.0 13.0 0.00 0.21 0.18 94 1013.6
20260504171803 60 320 6.0 11.0 0.00 0.21 0.18 93 1013.5
20260504171301 60 293 5.0 10.0 0.00 0.21 0.18 93 1013.5
20260504170801 60 330 5.0 11.0 0.00 0.21 0.18 93 1013.4
20260504170316 60 314 5.0 11.0 0.00 0.21 0.18 93 1013.5
20260504160301 61 310 2.0 5.0 0.03 0.25 0.18 92 1013.5
20260504150746 62 263 2.0 4.0 0.02 0.23 0.16 92 1013.5
20260504150245 62 294 2.0 4.0 0.01 0.21 0.14 92 1013.5
20260504141243 62 29 3.0 4.0 0.13 0.29 0.13 93 1013.8
20260504140743 62 34 3.0 6.0 0.13 0.30 0.13 93 1013.8
20260504140240 62 51 2.0 6.0 0.13 0.30 0.13 93 1013.8
20260504120311 65 75 3.0 7.0 0.00 0.19 0.00 86 1014.1
20260504110318 63 354 1.0 4.0 0.00 0.24 0.00 89 1014.4
20260504100215 60 69 2.0 3.0 0.00 0.31 0.00 98 1014.6
20260504080702 58 118 0.0 2.0 0.00 0.43 0.00 99 1014.3
20260504080236 57 118 1.0 3.0 0.00 0.43 0.00 99 1014.3
20260504070156 56 178 1.0 5.0 0.00 0.43 0.00 99 1013.7
20260504060223 55 172 1.0 2.0 0.00 0.43 0.00 99 1013.5
20260504050634 54 127 1.0 3.0 0.00 0.43 0.00 99 1012.6
20260504050209 54 127 1.0 4.0 0.00 0.43 0.00 99 1012.6
20260504045131 54 139 1.0 2.0 0.00 0.43 0.00 99 1012.5
20260504044632 54 139 1.0 2.0 0.00 0.43 0.00 98 1012.6
20260504044135 54 139 0.0 2.0 0.00 0.43 0.00 98 1012.6
20260504043635 54 139 0.0 2.0 0.00 0.43 0.00 98 1012.5
20260504043136 54 139 0.0 2.0 0.00 0.43 0.00 98 1012.6
20260504042640 54 139 0.0 2.0 0.00 0.43 0.00 98 1012.6
20260504042131 54 139 0.0 1.0 0.00 0.43 0.00 98 1012.7
20260504041633 54 139 0.0 2.0 0.00 0.43 0.00 98 1012.7
20260504041131 54 139 1.0 2.0 0.00 0.43 0.00 98 1012.7
20260504040701 54 139 1.0 4.0 0.00 0.43 0.00 98 1012.8
20260504035657 54 139 1.0 2.0 0.00 0.43 0.00 98 1012.7
20260504034637 54 139 0.0 2.0 0.00 0.43 0.00 98 1012.7
20260504034209 54 139 1.0 2.0 0.00 0.43 0.00 98 1012.8
20260504033135 54 139 1.0 2.0 0.00 0.43 0.00 98 1012.8
20260504032632 54 139 0.0 2.0 0.00 0.43 0.00 98 1012.8
20260504032134 54 139 0.0 1.0 0.00 0.43 0.00 98 1012.9
20260504031656 54 139 0.0 1.0 0.00 0.43 0.00 98 1012.9
20260504030632 53 139 0.0 2.0 0.00 0.43 0.00 98 1013.0
20260504030132 53 139 0.0 2.0 0.00 0.43 0.00 98 1012.9
20260504025630 53 139 0.0 1.0 0.00 0.43 0.00 98 1012.9
20260504025130 53 139 0.0 1.0 0.00 0.43 0.00 98 1012.9
20260504024630 53 139 0.0 1.0 0.00 0.43 0.00 98 1012.9
20260504024130 53 139 0.0 2.0 0.00 0.43 0.00 98 1012.9
20260504023632 53 139 1.0 2.0 0.00 0.43 0.00 98 1012.7
20260504023129 53 139 1.0 2.0 0.00 0.43 0.00 98 1012.7
20260504022632 53 139 1.0 2.0 0.00 0.43 0.00 98 1012.6
20260504022131 52 139 0.0 2.0 0.00 0.43 0.00 98 1012.6
20260504021631 52 139 0.0 1.0 0.00 0.43 0.00 98 1012.6
20260504021141 52 139 1.0 2.0 0.00 0.43 0.00 98 1012.6
20260504020631 52 139 1.0 2.0 0.00 0.43 0.00 98 1012.6
20260504020129 52 139 1.0 2.0 0.00 0.43 0.00 97 1012.6
20260504015628 53 152 1.0 2.0 0.00 0.43 0.00 97 1012.5
20260504015204 53 152 1.0 2.0 0.00 0.43 0.00 97 1012.5
20260504014206 53 152 0.0 2.0 0.00 0.43 0.00 97 1012.6
20260504013136 53 152 0.0 2.0 0.00 0.43 0.00 98 1012.7
20260504012640 53 152 0.0 0.0 0.00 0.43 0.00 98 1012.6
20260504012130 52 152 0.0 1.0 0.00 0.43 0.00 97 1012.6
20260504011629 53 152 0.0 1.0 0.00 0.43 0.00 97 1012.6
20260504011130 53 152 0.0 1.0 0.00 0.43 0.00 97 1012.5
20260504010801 53 152 0.0 1.0 0.00 0.43 0.00 97 1012.4
20260504004628 53 184 1.0 1.0 0.00 0.43 0.00 97 1012.5
20260504004126 53 184 0.0 1.0 0.00 0.43 0.00 97 1012.4
20260504003642 54 185 0.0 1.0 0.00 0.43 0.00 97 1012.3
20260504002701 54 184 1.0 2.0 0.00 0.43 0.00 97 1012.2